This is the latest recevied weather packets stored in our database for station/object AD8BV. If no packets are shown the sender has not sent any weather packets the latest 10 day(s).
| Time | Temp. | Humidity | Pressure | Rain* | Wind** | Luminosity | Snow |
|---|---|---|---|---|---|---|---|
| 1777986515 | 12.22° C | 67% | 1007.1 hPa | 0 mm | - | 124 W/m² | - |
| 1777986213 | 12.78° C | 66% | 1007.1 hPa | 0 mm | - | 116 W/m² | - |
| 1777985910 | 12.78° C | 66% | 1006.7 hPa | 0 mm | - | 135 W/m² | - |
| 1777985607 | 12.78° C | 64% | 1006.1 hPa | 0 mm | - | 135 W/m² | - |
| 1777985303 | 12.78° C | 66% | 1006.5 hPa | 0 mm | - | 138 W/m² | - |
| 1777985000 | 12.78° C | 63% | 1006.7 hPa | 0 mm | - | 90 W/m² | - |
| 1777984696 | 12.78° C | 64% | 1006.1 hPa | 0 mm | - | 171 W/m² | - |
| 1777984393 | 13.33° C | 65% | 1006 hPa | 0 mm | - | 80 W/m² | - |
| 1777984089 | 13.33° C | 65% | 1005.6 hPa | 0 mm | - | 159 W/m² | - |
| 1777983787 | 12.78° C | 66% | 1005.5 hPa | 0 mm | - | 124 W/m² | - |
| 1777983483 | 12.78° C | 68% | 1005.7 hPa | 0 mm | - | 91 W/m² | - |
| 1777983180 | 12.78° C | 66% | 1005.7 hPa | 0 mm | - | 62 W/m² | - |
| 1777982876 | 12.22° C | 68% | 1005.9 hPa | 0 mm | - | 97 W/m² | - |
| 1777982573 | 12.22° C | 67% | 1005.9 hPa | 0 mm | - | 86 W/m² | - |
| 1777982271 | 12.22° C | 67% | 1005.9 hPa | 0 mm | - | 42 W/m² | - |
| 1777981969 | 12.22° C | 67% | 1005.8 hPa | 0 mm | - | 42 W/m² | - |
| 1777981666 | 12.22° C | 68% | 1005.9 hPa | 0 mm | - | 51 W/m² | - |
| 1777981362 | 11.67° C | 69% | 1005.9 hPa | 0 mm | - | 72 W/m² | - |
| 1777981059 | 11.67° C | 68% | 1005.7 hPa | 0 mm | - | 38 W/m² | - |
| 1777980755 | 11.67° C | 70% | 1005.7 hPa | 0 mm | - | 31 W/m² | - |
| 1777980451 | 11.67° C | 69% | 1005.8 hPa | 0 mm | - | 34 W/m² | - |
| 1777980150 | 11.67° C | 73% | 1005.8 hPa | 0 mm | - | 28 W/m² | - |
| 1777979849 | 11.67° C | 76% | 1005.7 hPa | 0 mm | - | 24 W/m² | - |
| 1777979545 | 11.67° C | 73% | 1005.5 hPa | 0 mm | - | 20 W/m² | - |
| 1777979241 | 11.67° C | 72% | 1005.4 hPa | 0 mm | - | 16 W/m² | - |
* Rain latest hour (hover to see other rain measurements)
** Current wind speed in m/s (hover to see current wind gust speed)